User: anonymous   Login
Location: Unspecified
(0.0000°N, 0.0000°E)
Time: 01:01:31
(UTC+00:00)
Language:

STARLINK-5811 - Orbit

View from above orbital plane
View from above orbital plane
View from above satellite
View from above satellite

Ground track
Ground track

The orbit is defined by the following mean orbital elements,

1 55787U          26145.06755266 +.00000000 +00000-0 +25476-4 0 00008
2 55787  69.9997  12.0117 0002728 270.3300  89.7546 14.98332729    06
Epoch (UTC): 25 May 2026 01:37:16
Eccentricity: 0.0002728
inclination: 69.9997°
perigee height: 570 km
apogee height: 574 km
right ascension of ascending node: 12.0117°
argument of perigee: 270.3300°
revolutions per day: 14.98332729
mean anomaly at epoch: 89.7546°

The dashed part of the orbit path shows where the satellite is in the earth's shadow,  

DLR